When you browse on this site, cookies collect data to enhance your experience and personalize the content and advertising you see.
Visit our Privacy Policy to learn more. By continuing to use the site, you agree to this use of cookies and data.
  • în România
  • Lista ţărilor
  • Pe 7 zile
  • Temperatura apei
  • Hartă satelitară
  • Meteo pe hartă
  • Widget-uri
  • user-avatar
    Intrare

    Meteo pe oră la La Paz

    Astăzi, 20 Aprilie, Sâmbătă

    Timp Temperatura Precipitaţii Vânt Presiune Umiditate
    00:00 +9°C° 0.1 mm 1 m/s 475 mmHg 89%
    01:00 +8°C° 0 mm 1 m/s 474 mmHg 89%
    02:00 +8°C° 0.1 mm 1 m/s 474 mmHg 89%
    03:00 +7°C° 0.1 mm 0 m/s 474 mmHg 89%
    04:00 +6°C° 0.1 mm 0 m/s 473 mmHg 89%
    05:00 +7°C° 0 mm 0 m/s 474 mmHg 83%
    06:00 +8°C° 0 mm 0 m/s 475 mmHg 78%
    07:00 +9°C° 0 mm 0 m/s 476 mmHg 72%
    08:00 +10°C° 0.1 mm 0 m/s 477 mmHg 65%
    09:00 +13°C° 0.1 mm 1 m/s 477 mmHg 59%
    10:00 +14°C° 0.1 mm 1 m/s 478 mmHg 53%
    11:00 +15°C° 0.5 mm 1 m/s 478 mmHg 53%
    12:00 +15°C° 0.5 mm 2 m/s 478 mmHg 54%
    13:00 +15°C° 0.5 mm 2 m/s 477 mmHg 54%
    14:00 +15°C° 1 mm 2 m/s 477 mmHg 56%
    15:00 +15°C° 1 mm 2 m/s 476 mmHg 59%
    16:00 +13°C° 1 mm 3 m/s 476 mmHg 62%
    17:00 +12°C° 1.2 mm 3 m/s 476 mmHg 67%
    18:00 +11°C° 1.2 mm 3 m/s 475 mmHg 73%
    19:00 +10°C° 1.2 mm 3 m/s 475 mmHg 78%
    20:00 +10°C° 1.3 mm 2 m/s 475 mmHg 79%
    21:00 +10°C° 1.3 mm 2 m/s 476 mmHg 80%
    22:00 +10°C° 1.3 mm 2 m/s 476 mmHg 81%
    23:00 +9°C° 1.1 mm 2 m/s 476 mmHg 80%

    Mâine, 21 Aprilie, Duminică

    Timp Temperatura Precipitaţii Vânt Presiune Umiditate
    00:00 +10°C° 1.1 mm 1 m/s 475 mmHg 80%
    01:00 +10°C° 1.1 mm 1 m/s 475 mmHg 79%
    02:00 +10°C° 0.9 mm 1 m/s 475 mmHg 78%
    03:00 +9°C° 0.9 mm 1 m/s 475 mmHg 76%
    04:00 +9°C° 0.9 mm 1 m/s 475 mmHg 75%
    05:00 +9°C° 0.6 mm 1 m/s 475 mmHg 72%
    06:00 +9°C° 0.6 mm 1 m/s 475 mmHg 69%
    07:00 +9°C° 0.6 mm 1 m/s 475 mmHg 66%
    08:00 +11°C° 0.3 mm 1 m/s 476 mmHg 61%
    09:00 +12°C° 0.3 mm 1 m/s 476 mmHg 56%
    10:00 +13°C° 0.3 mm 1 m/s 477 mmHg 51%
    11:00 +13°C° 0.6 mm 1 m/s 477 mmHg 51%
    12:00 +14°C° 0.6 mm 1 m/s 476 mmHg 52%
    13:00 +14°C° 0.6 mm 1 m/s 476 mmHg 53%
    14:00 +14°C° 1.3 mm 1 m/s 475 mmHg 55%
    15:00 +13°C° 1.3 mm 2 m/s 475 mmHg 57%
    16:00 +13°C° 1.3 mm 2 m/s 474 mmHg 59%
    17:00 +12°C° 0.6 mm 2 m/s 474 mmHg 64%
    18:00 +10°C° 0.6 mm 2 m/s 474 mmHg 68%
    19:00 +9°C° 0.6 mm 2 m/s 474 mmHg 73%
    20:00 +9°C° 0.3 mm 2 m/s 474 mmHg 77%
    21:00 +8°C° 0.3 mm 2 m/s 474 mmHg 81%
    22:00 +8°C° 0.3 mm 2 m/s 474 mmHg 85%
    23:00 +8°C° 0.1 mm 1 m/s 474 mmHg 87%

    Poimâine, 22 Aprilie, Luni

    Timp Temperatura Precipitaţii Vânt Presiune Umiditate
    00:00 +8°C° 0.1 mm 1 m/s 473 mmHg 89%
    01:00 +8°C° 0.1 mm 1 m/s 473 mmHg 90%
    02:00 +7°C° 0 mm 1 m/s 473 mmHg 91%
    03:00 +7°C° 0 mm 1 m/s 472 mmHg 91%
    04:00 +7°C° 0 mm 1 m/s 472 mmHg 91%
    05:00 +6°C° 0 mm 0 m/s 473 mmHg 87%
    06:00 +7°C° 0 mm 0 m/s 473 mmHg 83%
    07:00 +8°C° 0 mm 0 m/s 474 mmHg 78%
    08:00 +10°C° 0 mm 1 m/s 475 mmHg 73%
    09:00 +11°C° 0 mm 1 m/s 476 mmHg 67%
    10:00 +13°C° 0 mm 2 m/s 476 mmHg 61%
    11:00 +13°C° 0.4 mm 2 m/s 476 mmHg 62%
    12:00 +13°C° 0.4 mm 2 m/s 475 mmHg 62%
    13:00 +12°C° 0.4 mm 3 m/s 475 mmHg 62%
    14:00 +13°C° 0.9 mm 2 m/s 474 mmHg 64%
    15:00 +13°C° 0.9 mm 2 m/s 474 mmHg 67%
    16:00 +12°C° 0.9 mm 2 m/s 473 mmHg 69%
    17:00 +10°C° 1.2 mm 3 m/s 473 mmHg 74%
    18:00 +9°C° 1.2 mm 3 m/s 473 mmHg 79%
    19:00 +9°C° 1.2 mm 3 m/s 473 mmHg 84%
    20:00 +8°C° 0.8 mm 3 m/s 474 mmHg 86%
    21:00 +8°C° 0.8 mm 3 m/s 474 mmHg 88%
    22:00 +8°C° 0.8 mm 3 m/s 474 mmHg 91%
    23:00 +7°C° 0.1 mm 2 m/s 474 mmHg 91%

    23 Aprilie, Marţi

    Timp Temperatura Precipitaţii Vânt Presiune Umiditate
    00:00 +7°C° 0.1 mm 2 m/s 474 mmHg 91%
    01:00 +8°C° 0.1 mm 1 m/s 473 mmHg 92%
    02:00 +8°C° 0.1 mm 1 m/s 473 mmHg 92%
    03:00 +6°C° 0.1 mm 2 m/s 473 mmHg 93%
    04:00 +6°C° 0.1 mm 2 m/s 472 mmHg 93%
    05:00 +7°C° 0.3 mm 1 m/s 473 mmHg 91%
    06:00 +8°C° 0.3 mm 1 m/s 474 mmHg 89%
    07:00 +8°C° 0.3 mm 1 m/s 474 mmHg 87%
    08:00 +8°C° 0.3 mm 2 m/s 475 mmHg 81%
    09:00 +9°C° 0.3 mm 2 m/s 475 mmHg 75%
    10:00 +10°C° 0.3 mm 3 m/s 476 mmHg 69%
    11:00 +10°C° 0.4 mm 3 m/s 476 mmHg 68%
    12:00 +11°C° 0.4 mm 3 m/s 475 mmHg 67%
    13:00 +11°C° 0.4 mm 3 m/s 475 mmHg 66%
    14:00 +11°C° 0.2 mm 4 m/s 474 mmHg 67%
    15:00 +11°C° 0.2 mm 4 m/s 474 mmHg 68%
    16:00 +11°C° 0.2 mm 4 m/s 474 mmHg 69%
    17:00 +10°C° 0.1 mm 4 m/s 474 mmHg 76%
    18:00 +8°C° 0.1 mm 4 m/s 474 mmHg 82%
    19:00 +8°C° 0.1 mm 3 m/s 474 mmHg 88%
    20:00 +7°C° 0 mm 3 m/s 474 mmHg 88%
    21:00 +7°C° 0 mm 3 m/s 474 mmHg 88%
    22:00 +7°C° 0 mm 2 m/s 474 mmHg 87%
    23:00 +7°C° 0.1 mm 2 m/s 474 mmHg 88%

    24 Aprilie, Miercuri

    Timp Temperatura Precipitaţii Vânt Presiune Umiditate
    00:00 +7°C° 0.1 mm 2 m/s 474 mmHg 88%
    01:00 +7°C° 0.1 mm 1 m/s 473 mmHg 88%
    02:00 +7°C° 0.2 mm 1 m/s 473 mmHg 88%
    03:00 +7°C° 0.2 mm 1 m/s 473 mmHg 88%
    04:00 +7°C° 0.2 mm 1 m/s 473 mmHg 88%
    05:00 +7°C° 0.1 mm 1 m/s 474 mmHg 86%
    06:00 +8°C° 0.1 mm 1 m/s 474 mmHg 85%
    07:00 +8°C° 0.1 mm 1 m/s 475 mmHg 84%
    08:00 +8°C° 0.1 mm 2 m/s 476 mmHg 79%
    09:00 +9°C° 0.1 mm 2 m/s 476 mmHg 73%
    10:00 +10°C° 0.1 mm 2 m/s 477 mmHg 68%
    11:00 +11°C° 0.4 mm 3 m/s 476 mmHg 68%
    12:00 +11°C° 0.4 mm 3 m/s 476 mmHg 68%
    13:00 +11°C° 0.4 mm 3 m/s 475 mmHg 68%
    14:00 +11°C° 0.3 mm 3 m/s 475 mmHg 70%
    15:00 +10°C° 0.3 mm 3 m/s 475 mmHg 72%
    16:00 +10°C° 0.3 mm 4 m/s 474 mmHg 73%
    17:00 +9°C° 0 mm 3 m/s 474 mmHg 78%
    18:00 +8°C° 0 mm 3 m/s 474 mmHg 83%
    19:00 +7°C° 0 mm 3 m/s 474 mmHg 88%
    20:00 +7°C° 0.2 mm 3 m/s 474 mmHg 88%
    21:00 +7°C° 0.2 mm 2 m/s 474 mmHg 89%
    22:00 +7°C° 0.2 mm 2 m/s 474 mmHg 89%
    23:00 +6°C° 0.4 mm 2 m/s 474 mmHg 89%

    25 Aprilie, Joi

    Timp Temperatura Precipitaţii Vânt Presiune Umiditate
    00:00 +6°C° 0.4 mm 2 m/s 474 mmHg 89%
    01:00 +6°C° 0.4 mm 2 m/s 474 mmHg 89%
    02:00 +7°C° 0.2 mm 1 m/s 474 mmHg 90%
    03:00 +7°C° 0.2 mm 1 m/s 474 mmHg 90%
    04:00 +7°C° 0.2 mm 1 m/s 473 mmHg 90%
    05:00 +7°C° 0.2 mm 1 m/s 474 mmHg 88%
    06:00 +7°C° 0.2 mm 1 m/s 475 mmHg 86%
    07:00 +8°C° 0.2 mm 1 m/s 475 mmHg 85%
    08:00 +9°C° 0.3 mm 1 m/s 476 mmHg 79%
    09:00 +9°C° 0.3 mm 2 m/s 476 mmHg 74%
    10:00 +10°C° 0.3 mm 2 m/s 477 mmHg 69%
    11:00 +10°C° 0.5 mm 2 m/s 476 mmHg 69%
    12:00 +10°C° 0.5 mm 2 m/s 476 mmHg 68%
    13:00 +12°C° 0.5 mm 2 m/s 475 mmHg 68%
    14:00 +10°C° 0.3 mm 3 m/s 475 mmHg 69%
    15:00 +10°C° 0.3 mm 3 m/s 475 mmHg 71%
    16:00 +10°C° 0.3 mm 3 m/s 474 mmHg 72%
    17:00 +9°C° 0 mm 3 m/s 474 mmHg 78%
    18:00 +8°C° 0 mm 3 m/s 474 mmHg 83%
    19:00 +7°C° 0 mm 3 m/s 474 mmHg 89%
    20:00 +7°C° 0.1 mm 2 m/s 474 mmHg 89%
    21:00 +7°C° 0.1 mm 2 m/s 475 mmHg 90%
    22:00 +7°C° 0.1 mm 2 m/s 475 mmHg 90%
    23:00 +7°C° 0.1 mm 1 m/s 475 mmHg 90%
    Arată mai mult